map of SJK home
Great Circle Mapper logo
SJK - Airport
Location
City:  São José dos Campos, São Paulo, Brazil
Name:Professor Urbano Ernesto Stumpf
ICAO / IATA:SBSJ / SJK

Details
Type:Airport (Aerodrome, Airfield)
Use:Public/Civil, Military
Latitude:23°13'41"S (-23.228171)
Longitude:45°51'46"W (-45.862738)
Datum:WGS 1984
Elevation:2120 ft (646 m)
Variation:21.38°W (WMM2015 magnetic declination)
-0.11° annual change
Runways:1
Longest:8779 × 148 ft (2676 × 45 m), paved

Time
Time Zone:UTC-3 (DST-2)
Local Time:

Weather
METAR:SBSJ 292200Z 28009KT CAVOK 31/14 Q1015
TAF:SBSJ 292100Z 3000/3024 06005KT 8000 SCT020 TN22/3007Z TX30/3017Z PROB30 3008/3010 4000 BR SCT008
BECMG 3012/3014 27005KT
BECMG 3015/3017 20010KT PROB30 3018/3021 5000 TSRA BKN020 FEW030CB
RMK PHD

Related Locations
Nearby:
Farthest:MMD: 12183 mi / 19606 km
Minami Daito Jima, Okinawa, JP

Find:

   beyond  
but within

Other Information
Maps:
NOTAMs:
Links:
Sources:

  
flag of Brazil
flag of São Paulo
  

Sectional Chart

Flight Planning
at skyvector.com

Satellite Image

Google Maps Satellite View

 

Copyright © 2004-2015 Karl L. Swartz. All rights reserved.
The Great Circle Mapper name and logo are trademarks of the Great Circle Mapper.
All other trademarks mentioned herein belong to their respective owners.
Please see credits for attibutions and further copyright information.

  Follow gcmap on Facebook Follow gcmap on Twitter

hCard Microformat

Geo Microformat